Simultaneous Nadir Overpasses (SNOs) Predictions

Prediction of SNOs between METOP-B and TERRA Satellite Orbit:

Table of predicted SNOs for the next 14.0 days since TLE Epoch: 10/7/2023
Index Date (METOP-B) Time (METOP-B) Lat,Lon (METOP-B) SZA (METOP-B ) Date (TERRA) Time (TERRA) Lat,Lon (TERRA) SZA (TERRA ) Distance(km) Time Diff (sec)
1 10/07/2023 13:08:53 -80.67,-167.80 92.40 10/07/2023 13:09:10 -80.67,-167.84 92.40 0.88 17
2 10/07/2023 13:59:30 80.75, 0.73 87.78 10/07/2023 13:58:29 80.74, 0.61 87.75 2.22 61
3 10/10/2023 04:29:49 80.67, 141.86 88.61 10/10/2023 04:30:21 80.67, 141.82 88.61 0.78 32
4 10/10/2023 05:20:28 -80.71, -50.10 91.29 10/10/2023 05:19:42 -80.72, -49.97 91.29 2.44 46
5 10/12/2023 19:50:47 -80.62, 90.98 90.49 10/12/2023 19:51:34 -80.62, 90.99 90.47 0.42 47
6 10/12/2023 20:41:23 80.72,-100.21 89.74 10/12/2023 20:40:52 80.71,-100.34 89.71 2.53 31
7 10/15/2023 11:11:40 80.65, 41.08 90.56 10/15/2023 11:12:41 80.64, 40.91 90.56 3.18 61
8 10/15/2023 12:02:20 -80.67,-151.18 89.37 10/15/2023 12:02:03 -80.67,-151.12 89.38 1.13 17
9 10/18/2023 02:32:57 -80.09, -15.99 89.50 10/18/2023 02:34:11 -79.97, -15.52 89.56 16.78 74
10 10/18/2023 03:23:14 80.69, 158.81 91.64 10/18/2023 03:23:10 80.69, 158.76 91.63 0.87 4
11 10/20/2023 18:44:11 -80.65, 108.02 87.49 10/20/2023 18:44:20 -80.66, 108.09 87.47 1.50 9



Historial Predications of SNOs between METOP-B and TERRA
